Tracking 17265 objects as of 4-September-2015
HD Live streaming from Space Station

Track Soyuz TMA-18M
and Space Station

IRIDIUM 18

Track IRIDIUM 18 now!
10-day predictions
IRIDIUM 18 is classified as:


NORAD ID: 24872
Int'l Code: 1997-034D
Perigee: 783.2 km
Apogee: 786.4 km
Inclination: 86.4 °
Period: 100.4 minutes
Semi major axis: 7155 km
RCS: 3.8649 m2 (large)
Launch date: July 9, 1997
Source: United States (US)
Your satellite tracking list
Your tracking list is empty





NASA's NSSDC Master Catalog

Two Line Element Set (TLE):
1 24872U 97034D   15245.67100481 +.00000143 +00000-0 +44023-4 0  9995
2 24872 086.3954 295.2026 0002227 093.4618 266.6833 14.34214113950192

Source of the keplerian elements: AFSPC

N2YO: 479